EW3149 Weather Reports


Display with metric or nautical units.
time (UTC)temp
F
wind
direction
speed
MPH
gust
MPH
rain 1hr
in
rain 24hr
in
rain mn
in
humidity
%
barometer
mb
20260509033901 53 205 2.0 3.0 0.00 0.13 0.13 95 1008.3
20260509033402 53 205 0.0 0.0 0.00 0.13 0.13 95 1008.5
20260509032901 53 205 0.0 1.0 0.00 0.13 0.13 95 1008.5
20260509032401 53 205 1.0 3.0 0.00 0.13 0.13 95 1008.5
20260509031902 53 205 2.0 3.0 0.00 0.13 0.13 95 1008.5
20260509030401 54 205 2.0 3.0 0.00 0.13 0.13 94 1008.6
20260509025901 54 205 3.0 3.0 0.00 0.13 0.13 95 1008.6
20260509025401 54 208 0.0 3.0 0.00 0.13 0.13 95 1008.5
20260509024901 54 205 1.0 3.0 0.00 0.13 0.13 94 1008.5
20260509024402 54 205 2.0 3.0 0.00 0.13 0.13 94 1008.5
20260509023402 54 210 2.0 3.0 0.00 0.13 0.13 94 1008.5
20260509022901 54 206 3.0 3.0 0.00 0.13 0.13 94 1008.5
20260509022401 54 206 2.0 3.0 0.00 0.13 0.13 94 1008.5
20260509021902 54 216 2.0 3.0 0.00 0.13 0.13 94 1008.5
20260509021402 54 211 2.0 5.0 0.00 0.13 0.13 93 1008.5
20260509020402 54 261 3.0 3.0 0.00 0.13 0.13 93 1008.5
20260509015901 55 345 2.0 3.0 0.00 0.13 0.13 93 1008.5
20260509015401 55 211 3.0 5.0 0.00 0.13 0.13 93 1008.5
20260509014902 55 345 2.0 6.0 0.00 0.13 0.13 93 1008.5
20260509014402 55 359 4.0 6.0 0.00 0.13 0.13 93 1008.5
20260509013902 55 359 3.0 6.0 0.00 0.13 0.13 93 1008.5
20260509013401 55 351 5.0 7.0 0.00 0.13 0.13 93 1008.5
20260509012902 55 358 3.0 6.0 0.00 0.13 0.13 92 1008.5
20260509012402 55 354 5.0 8.0 0.00 0.13 0.13 92 1008.5
20260509011902 55 350 5.0 8.0 0.00 0.13 0.13 92 1008.4
20260509011401 55 333 6.0 9.0 0.00 0.13 0.13 92 1008.4
20260509010901 55 354 7.0 12.0 0.00 0.13 0.13 92 1008.4
20260509005901 55 0 8.0 12.0 0.00 0.13 0.13 91 1008.4
20260509005402 55 329 8.0 12.0 0.00 0.13 0.13 91 1008.4
20260509004902 55 335 8.0 10.0 0.00 0.13 0.13 91 1008.3
20260509004401 56 338 6.0 12.0 0.00 0.13 0.13 91 1008.3
20260509003902 56 348 7.0 12.0 0.00 0.13 0.13 91 1008.3
20260509003402 56 349 7.0 12.0 0.00 0.13 0.13 91 1008.4
20260509002901 56 342 7.0 14.0 0.00 0.13 0.13 91 1008.4
20260509002402 56 350 8.0 12.0 0.00 0.13 0.13 91 1008.3
20260509001902 56 322 7.0 12.0 0.00 0.13 0.13 91 1008.4
20260509001401 56 270 7.0 10.0 0.00 0.13 0.13 91 1008.5
20260509000403 56 274 5.0 10.0 0.00 0.13 0.13 91 1008.4
20260508234901 56 346 7.0 13.0 0.00 0.13 0.13 92 1008.5
20260508233901 56 250 6.0 10.0 0.00 0.13 0.13 92 1008.6
20260508232901 56 343 6.0 12.0 0.00 0.13 0.13 91 1008.6
20260508232402 56 348 7.0 12.0 0.00 0.13 0.13 91 1008.6
20260508231902 56 0 6.0 12.0 0.00 0.13 0.13 91 1008.6
20260508231402 56 346 7.0 12.0 0.00 0.13 0.13 91 1008.7
20260508230902 56 330 6.0 12.0 0.00 0.13 0.13 91 1008.6
20260508225902 56 351 6.0 10.0 0.00 0.13 0.13 92 1008.6
20260508225402 56 352 5.0 8.0 0.00 0.13 0.13 92 1008.7
20260508224902 56 333 6.0 10.0 0.00 0.13 0.13 92 1008.8
20260508224401 56 336 5.0 10.0 0.00 0.13 0.13 92 1008.7
20260508223902 56 225 5.0 7.0 0.01 0.13 0.13 92 1008.8
20260508222902 56 348 5.0 9.0 0.01 0.13 0.13 92 1008.7
20260508222402 56 349 6.0 10.0 0.01 0.13 0.13 92 1008.7
20260508221902 56 335 6.0 9.0 0.01 0.13 0.13 92 1008.8
20260508220902 56 292 5.0 6.0 0.01 0.13 0.13 92 1008.8
20260508220402 56 356 5.0 8.0 0.01 0.13 0.13 92 1008.7
20260508215901 56 358 5.0 9.0 0.01 0.13 0.13 91 1008.7
20260508213902 56 347 6.0 10.0 0.01 0.12 0.12 90 1008.8
20260508213402 56 344 7.0 14.0 0.01 0.12 0.12 91 1008.8
20260508212903 56 349 9.0 15.0 0.02 0.12 0.12 91 1008.9
20260508210902 56 326 6.0 12.0 0.04 0.12 0.12 94 1009.1
20260508210402 56 327 7.0 12.0 0.04 0.12 0.12 93 1009.1
20260508205902 56 252 7.0 9.0 0.05 0.12 0.12 93 1009.2
20260508205402 56 354 6.0 9.0 0.06 0.12 0.12 93 1009.3
20260508204902 56 247 5.0 9.0 0.06 0.12 0.12 93 1009.2
20260508204402 56 323 5.0 10.0 0.06 0.12 0.12 93 1009.4
20260508202902 56 264 5.0 8.0 0.06 0.10 0.10 93 1009.7
20260508202402 56 348 3.0 8.0 0.07 0.10 0.10 92 1009.7
20260508201902 56 329 6.0 9.0 0.07 0.09 0.09 92 1009.8
20260508201402 56 302 5.0 9.0 0.07 0.09 0.09 92 1009.7
20260508200902 56 327 5.0 7.0 0.07 0.08 0.08 93 1009.8
20260508195403 56 341 5.0 8.0 0.05 0.06 0.06 92 1010.1
20260508194903 56 339 5.0 9.0 0.05 0.06 0.06 91 1010.1
20260508194402 56 336 6.0 12.0 0.05 0.06 0.06 91 1010.3
20260508193402 56 342 7.0 12.0 0.03 0.04 0.04 89 1010.3
20260508192403 56 303 6.0 12.0 0.02 0.03 0.03 87 1010.4
20260508191402 57 344 9.0 15.0 0.01 0.02 0.02 84 1010.4
20260508190902 58 355 11.0 16.0 0.00 0.01 0.01 83 1010.5
20260508190402 58 355 12.0 17.0 0.00 0.01 0.01 81 1010.4
20260508185902 59 328 10.0 16.0 0.00 0.01 0.01 83 1010.3
20260508185403 59 354 8.0 13.0 0.00 0.01 0.01 82 1010.2
20260508184903 59 354 11.0 15.0 0.00 0.01 0.01 80 1010.2
20260508183903 60 346 13.0 20.0 0.00 0.01 0.01 77 1010.3
20260508183402 60 353 10.0 18.0 0.00 0.01 0.01 75 1010.3
20260508182902 61 354 11.0 18.0 0.00 0.01 0.01 71 1010.3
20260508182402 62 346 14.0 20.0 0.00 0.01 0.01 68 1010.2
20260508181903 63 356 15.0 23.0 0.00 0.01 0.01 65 1010.2
20260508181403 63 343 13.0 20.0 0.00 0.01 0.01 66 1010.2
20260508180902 63 351 10.0 15.0 0.00 0.01 0.01 67 1010.2
20260508180402 62 333 7.0 13.0 0.00 0.01 0.01 70 1010.3
20260508175902 62 350 9.0 16.0 0.00 0.01 0.01 69 1010.3
20260508174903 61 294 5.0 8.0 0.00 0.01 0.01 69 1010.5
20260508174403 61 357 5.0 8.0 0.00 0.01 0.01 70 1010.6
20260508173903 61 345 6.0 12.0 0.00 0.01 0.01 69 1010.7
20260508173402 61 204 6.0 12.0 0.00 0.01 0.01 69 1010.7
20260508172902 61 343 5.0 10.0 0.00 0.01 0.01 70 1010.8
20260508172403 61 313 7.0 12.0 0.00 0.01 0.01 68 1010.9
20260508171902 61 356 9.0 12.0 0.00 0.01 0.01 67 1010.9
20260508171403 61 253 6.0 12.0 0.00 0.01 0.01 68 1011.0
20260508170902 61 321 10.0 16.0 0.00 0.01 0.01 68 1011.1
20260508170402 61 358 11.0 15.0 0.00 0.01 0.01 68 1011.2
20260508165903 61 344 10.0 14.0 0.00 0.01 0.01 67 1011.3
20260508165403 60 349 7.0 10.0 0.00 0.01 0.01 68 1011.4
20260508164903 60 318 6.0 12.0 0.00 0.01 0.01 68 1011.5
20260508164402 59 315 5.0 14.0 0.00 0.01 0.01 69 1011.6
20260508163903 59 342 8.0 15.0 0.00 0.01 0.01 69 1011.8
20260508163403 59 353 8.0 12.0 0.00 0.01 0.01 70 1011.9
20260508162902 58 335 7.0 12.0 0.00 0.01 0.01 70 1012.0
20260508161902 58 346 12.0 15.0 0.00 0.01 0.01 70 1012.2
20260508160903 59 328 8.0 14.0 0.00 0.01 0.01 70 1012.1
20260508160403 59 246 9.0 14.0 0.00 0.01 0.01 71 1012.1
20260508155903 59 0 10.0 12.0 0.00 0.01 0.01 70 1012.1
20260508155403 59 349 11.0 14.0 0.00 0.01 0.01 69 1012.1
20260508154902 59 354 9.0 14.0 0.00 0.01 0.01 73 1012.1
20260508154403 59 354 9.0 13.0 0.00 0.01 0.01 73 1012.2
20260508153903 58 0 8.0 12.0 0.00 0.01 0.01 72 1012.2
20260508153403 58 0 8.0 12.0 0.00 0.01 0.01 72 1012.3
20260508152903 58 0 9.0 12.0 0.00 0.01 0.01 73 1012.3
20260508151903 57 358 9.0 13.0 0.00 0.01 0.01 76 1012.4
20260508151403 56 345 5.0 8.0 0.00 0.01 0.01 78 1012.4
20260508150903 55 347 7.0 10.0 0.00 0.01 0.01 77 1012.4
20260508150403 55 294 5.0 9.0 0.00 0.01 0.01 77 1012.5
20260508145903 55 318 4.0 9.0 0.00 0.01 0.01 80 1012.6
20260508145403 54 278 4.0 9.0 0.00 0.01 0.01 80 1012.7
20260508144903 54 290 4.0 7.0 0.00 0.01 0.01 81 1012.7
20260508143903 53 270 2.0 3.0 0.01 0.01 0.01 85 1012.9
20260508143403 53 276 1.0 2.0 0.01 0.01 0.01 85 1012.9
20260508142903 52 331 1.0 3.0 0.01 0.01 0.01 86 1013.0
20260508142402 52 263 1.0 3.0 0.01 0.01 0.01 85 1012.8
20260508140903 52 274 1.0 3.0 0.01 0.01 0.01 86 1013.1
20260508140403 52 248 0.0 2.0 0.01 0.01 0.01 86 1013.2
20260508135903 52 248 2.0 3.0 0.01 0.01 0.01 85 1013.3
20260508134903 52 295 5.0 8.0 0.01 0.01 0.01 83 1013.3
20260508134402 52 254 5.0 8.0 0.00 0.00 0.00 82 1013.3
20260508133903 52 347 7.0 12.0 0.00 0.00 0.00 81 1013.4
20260508133403 52 346 6.0 9.0 0.00 0.00 0.00 81 1013.2
20260508132903 52 333 7.0 12.0 0.00 0.00 0.00 82 1012.9
20260508132403 52 351 4.0 8.0 0.00 0.00 0.00 83 1012.8
20260508131903 52 357 4.0 8.0 0.00 0.00 0.00 84 1012.7
20260508131402 51 243 3.0 6.0 0.00 0.00 0.00 85 1012.7
20260508130403 50 212 2.0 3.0 0.00 0.00 0.00 87 1012.7
20260508125403 50 246 3.0 3.0 0.00 0.00 0.00 87 1012.8
20260508124903 50 259 3.0 3.0 0.00 0.00 0.00 87 1013.0
20260508124403 50 239 3.0 3.0 0.00 0.00 0.00 87 1013.0
20260508123903 50 240 3.0 5.0 0.00 0.00 0.00 87 1012.9
20260508123403 50 236 2.0 3.0 0.00 0.00 0.00 87 1013.0
20260508122403 50 216 3.0 5.0 0.00 0.00 0.00 86 1013.1
20260508121903 50 214 3.0 5.0 0.00 0.00 0.00 87 1013.0
20260508121403 50 234 2.0 3.0 0.00 0.00 0.00 87 1013.0
20260508120903 50 234 2.0 3.0 0.00 0.00 0.00 86 1013.0
20260508120403 50 238 4.0 7.0 0.00 0.00 0.00 85 1013.0
20260508115903 50 353 5.0 12.0 0.00 0.00 0.00 85 1013.0
20260508115403 50 297 6.0 10.0 0.00 0.00 0.00 84 1012.9
20260508114403 50 0 6.0 9.0 0.00 0.00 0.00 84 1012.8
20260508113903 50 320 6.0 12.0 0.00 0.00 0.00 84 1012.6
20260508113403 50 261 7.0 12.0 0.00 0.00 0.00 84 1012.5
20260508112904 50 317 6.0 12.0 0.00 0.00 0.00 83 1012.7
20260508112403 51 352 6.0 9.0 0.00 0.00 0.00 83 1012.7
20260508111903 51 347 8.0 13.0 0.00 0.00 0.00 82 1012.7
20260508110403 51 341 6.0 12.0 0.00 0.00 0.00 79 1012.4
20260508105903 51 348 9.0 14.0 0.00 0.00 0.00 77 1012.4
20260508105404 51 355 10.0 15.0 0.00 0.00 0.00 76 1012.4
20260508104404 52 340 12.0 16.0 0.00 0.00 0.00 75 1012.4
20260508103404 51 358 10.0 13.0 0.00 0.00 0.00 77 1012.4
20260508102903 51 345 10.0 15.0 0.00 0.00 0.00 77 1012.5
20260508102404 51 345 9.0 12.0 0.00 0.00 0.00 78 1012.4
20260508101903 51 353 9.0 16.0 0.00 0.00 0.00 77 1012.4
20260508101403 51 346 8.0 12.0 0.00 0.00 0.00 77 1012.4
20260508100903 51 344 7.0 14.0 0.00 0.00 0.00 77 1012.4
20260508095903 52 352 10.0 16.0 0.00 0.00 0.00 75 1012.2
20260508095404 51 348 12.0 18.0 0.00 0.00 0.00 75 1012.3
20260508094904 51 355 10.0 16.0 0.00 0.00 0.00 76 1012.4
20260508094403 52 339 10.0 15.0 0.00 0.00 0.00 75 1012.5
20260508093904 52 333 12.0 18.0 0.00 0.00 0.00 75 1012.5
20260508093403 52 347 10.0 16.0 0.00 0.00 0.00 75 1012.5
20260508092904 52 348 12.0 17.0 0.00 0.00 0.00 74 1012.6
20260508091904 51 334 10.0 14.0 0.00 0.00 0.00 76 1012.7
20260508091403 51 345 9.0 17.0 0.00 0.00 0.00 78 1012.7
20260508090903 51 337 10.0 12.0 0.00 0.00 0.00 79 1012.7
20260508090403 50 341 8.0 12.0 0.00 0.00 0.00 80 1012.8
20260508085904 50 343 6.0 12.0 0.00 0.00 0.00 81 1012.6
20260508085404 50 269 5.0 9.0 0.00 0.00 0.00 81 1012.6
20260508084903 50 351 7.0 13.0 0.00 0.00 0.00 81 1012.5
20260508084403 50 355 5.0 6.0 0.00 0.00 0.00 81 1012.5
20260508083903 49 343 5.0 6.0 0.00 0.00 0.00 81 1012.5
20260508083404 49 0 4.0 8.0 0.00 0.00 0.00 80 1012.5
20260508082904 49 234 4.0 6.0 0.00 0.00 0.00 80 1012.5
20260508082403 50 238 3.0 5.0 0.00 0.00 0.00 79 1012.5
20260508080403 50 344 8.0 12.0 0.00 0.00 0.00 77 1012.5
20260508075403 51 327 11.0 15.0 0.00 0.00 0.00 75 1012.5
20260508074904 51 327 9.0 14.0 0.00 0.00 0.00 75 1012.5
20260508074404 50 324 11.0 17.0 0.00 0.00 0.00 76 1012.6
20260508073904 50 333 10.0 14.0 0.00 0.00 0.00 76 1012.7
20260508073404 50 336 8.0 14.0 0.00 0.00 0.00 77 1012.6
20260508072903 49 334 6.0 12.0 0.00 0.00 0.00 78 1012.7
20260508072404 50 340 9.0 13.0 0.00 0.00 0.00 78 1012.7
20260508071904 49 308 9.0 12.0 0.00 0.00 0.00 79 1012.7
20260508071404 49 347 8.0 12.0 0.00 0.00 0.00 79 1012.7
20260508070404 49 272 7.0 12.0 0.00 0.00 0.00 80 1012.7
20260508065903 49 341 8.0 12.0 0.00 0.00 0.00 81 1012.8
20260508065403 49 347 7.0 12.0 0.00 0.00 0.00 81 1012.8
20260508064905 49 334 8.0 12.0 0.00 0.00 0.00 82 1012.9
20260508063901 48 311 6.0 9.0 0.00 0.00 0.00 83 1012.9
20260508063401 48 282 5.0 9.0 0.00 0.00 0.00 84 1012.9
20260508062901 48 354 6.0 10.0 0.00 0.00 0.00 85 1012.8
20260508062401 47 301 6.0 10.0 0.00 0.00 0.00 86 1012.9
20260508061901 47 309 5.0 6.0 0.00 0.00 0.00 87 1012.9
20260508061400 47 231 4.0 6.0 0.00 0.00 0.00 87 1012.9
20260508060901 46 299 3.0 5.0 0.00 0.00 0.00 88 1012.9
20260508060401 46 217 3.0 5.0 0.00 0.00 0.00 88 1012.9
20260508055901 46 191 2.0 3.0 0.00 0.00 0.00 89 1013.0
20260508055401 46 213 3.0 5.0 0.00 0.00 0.00 88 1013.1
20260508053901 46 209 0.0 0.0 0.00 0.00 0.00 87 1013.2
20260508053401 46 209 0.0 0.0 0.00 0.00 0.00 86 1013.2
20260508052901 46 209 0.0 0.0 0.00 0.00 0.00 86 1013.3
20260508052401 46 209 1.0 3.0 0.00 0.00 0.00 86 1013.4
20260508051901 47 196 2.0 3.0 0.00 0.00 0.00 86 1013.3
20260508051401 46 196 3.0 5.0 0.00 0.00 0.00 87 1013.3
20260508050901 46 196 3.0 5.0 0.00 0.00 0.00 87 1013.3
20260508050401 46 196 2.0 3.0 0.00 0.00 0.00 86 1013.3
20260508045901 46 196 2.0 3.0 0.00 0.00 0.00 86 1013.3
20260508044901 46 196 2.0 3.0 0.00 0.00 0.00 86 1013.3
20260508044401 46 197 1.0 3.0 0.00 0.00 0.00 86 1013.3
20260508043901 46 238 0.0 0.0 0.00 0.00 0.00 85 1013.3
20260508043401 47 238 0.0 0.0 0.00 0.00 0.00 84 1013.3
20260508042901 47 238 0.0 0.0 0.00 0.00 0.00 84 1013.3
20260508042402 47 238 0.0 0.0 0.00 0.00 0.00 83 1013.3
20260508040901 48 238 2.0 3.0 0.00 0.00 0.00 82 1013.3
20260508040401 48 238 1.0 3.0 0.00 0.00 0.00 81 1013.3
20260508035902 48 238 0.0 2.0 0.00 0.00 0.00 80 1013.3
20260508035401 49 312 1.0 3.0 0.00 0.00 0.00 79 1013.4
20260508034902 49 241 0.0 0.0 0.00 0.00 0.00 79 1013.4
20260508034401 49 247 1.0 3.0 0.00 0.00 0.00 79 1013.4